Overview Statistics Trail Chart Weather Telemetry Raw packets
 

This is the latest recevied weather packets stored in our database for station/object KC5DAQ-26. If no packets are shown the sender has not sent any weather packets the latest 10 day(s).

<< 500 501 502 503 504 505 506 >>
Time Temp. Humidity Pressure Rain* Wind** Luminosity Snow
1787862271 36.67° C 53% 1015.7 hPa 0 mm - 804 W/m² -
1787862211 36.67° C 51% 1015.7 hPa 0 mm - 807 W/m² -
1787862151 36.11° C 51% 1015.7 hPa 0 mm - 809 W/m² -
1787862093 36.11° C 50% 1015.7 hPa 0 mm - 809 W/m² -
1787862032 36.11° C 51% 1015.7 hPa 0 mm - 809 W/m² -
1787861972 36.11° C 50% 1015.8 hPa 0 mm - 811 W/m² -
1787861912 36.11° C 50% 1015.8 hPa 0 mm - 814 W/m² -
1787861852 36.11° C 54% 1015.9 hPa 0 mm - 818 W/m² -
1787861791 36.11° C 53% 1015.9 hPa 0 mm - 821 W/m² -
1787861732 36.67° C 50% 1015.9 hPa 0 mm - 821 W/m² -
1787861673 36.67° C 52% 1015.9 hPa 0 mm - 823 W/m² -
1787861610 36.67° C 52% 1015.9 hPa 0 mm - 826 W/m² -
1787861549 36.67° C 52% 1015.9 hPa 0 mm - 828 W/m² -
1787861489 36.11° C 52% 1015.9 hPa 0 mm - 835 W/m² -
1787861427 36.11° C 52% 1015.9 hPa 0 mm - 835 W/m² -
1787861366 36.11° C 52% 1016 hPa 0 mm - 833 W/m² -
1787861307 36.11° C 52% 1016 hPa 0 mm - 835 W/m² -
1787861247 36.67° C 51% 1016 hPa 0 mm - 833 W/m² -
1787861188 36.67° C 50% 1015.9 hPa 0 mm - 835 W/m² -
1787861127 36.67° C 51% 1015.9 hPa 0 mm - 830 W/m² -
1787861068 36.67° C 51% 1016.1 hPa 0 mm - 833 W/m² -
1787861007 36.67° C 51% 1016 hPa 0 mm - 835 W/m² -
1787860946 36.67° C 51% 1016.1 hPa 0 mm - 846 W/m² -
1787860887 36.67° C 53% 1016.1 hPa 0 mm - 841 W/m² -
1787860828 36.67° C 52% 1016.1 hPa 0 mm - 840 W/m² -

* Rain latest hour (hover to see other rain measurements)
** Current wind speed in m/s (hover to see current wind gust speed)